Starlink 32106

operational
NORAD ID: 59690 Int'l Des: 2024-086 Owner: SPXS Country: US Constellation: starlink
LEOCIRCULAR

About Starlink 32106

Description loading...

Live Position

Loading 3D Globe...

Upcoming Passes

Altitude History

Altitude vs Time

uPlot chart will show altitude changes over time

Two-Line Element Set

1 59690U 24086J 25348.57627204 .00003927 00000-0 15227-3 0 9995
2 59690 43.0023 172.9228 0001287 249.6716 110.3997 15.27551632 91183
Epoch: Dec 14, 2025 • Age: 27 hours

Current Status

Altitude 486.5 km
Velocity 7.63 km/s
Sub-Earth Point 40.74°N, 59.44°W
Launch Date May 8, 2024
Age 1.6 years
Type internet

Technical Details

Classification Payload
Mass 730.00 kg
Dry Mass 700.00 kg
Total Mass 730.00 kg
Length 0.30 m
Diameter 4.10 m
Span 29.00 m
Shape Box + pan
Manufacturer SPXS
Bus Type Starlink V2M
Phase Status In Orbit
Owner/State SPXS/US

Large Constellations

Loading constellations...